Regional Weather Roundup
Issued by NWS

Home | Current Version | Previous Version | Text Only | Print | Product List | Glossary Off
Versions: 1 2 3 4 5 6 7 8 9 10 11 12 13 14 15 16 17 18 19 20 21 22 23 24 25 26 27 28 29 30 31 32 33 34 35 36 37 38 39 40 41 42 43 44 45 46 47 48 49 50

000
ASUS43 KBIS 120131
RWRND
NORTH DAKOTA REGIONAL WEATHER ROUNDUP
NATIONAL WEATHER SERVICE EASTERN NORTH DAKOTA/GRAND FORKS ND
700 PM CST THU FEB 11 2016

  NOTE: "FAIR" INDICATES FEW OR NO CLOUDS BELOW 12,000 FEET WITH NO
  SIGNIFICANT WEATHER AND/OR OBSTRUCTIONS TO VISIBILITY.

NDZ001>003-009>011-017-120200-
...NORTHWEST NORTH DAKOTA...

CITY           SKY/WX    TMP DP  RH WIND       PRES   REMARKS
WILLISTON      FLURRIES  22  16  78 N7        30.27R WCI  13
MINOT          CLOUDY    19  10  68 NW6       30.27R WCI  11
MINOT AFB      CLOUDY    17  12  81 CALM      30.27R
$$

NDZ018>021-031>035-040>046-120200-
...SOUTHWEST NORTH DAKOTA...

CITY           SKY/WX    TMP DP  RH WIND       PRES   REMARKS
BISMARCK       CLOUDY    24  15  68 N8        30.25R WCI  15
DICKINSON      CLOUDY    22  18  85 CALM      30.18F
GARRISON         N/A     19  14  81 NW9       30.26R WCI   8
HETTINGER      CLOUDY    24  20  84 N7        30.21R WCI  16
$$

NDZ004>008-012>016-024-026-027-054-120200-
...NORTHEAST NORTH DAKOTA...

CITY           SKY/WX    TMP DP  RH WIND       PRES   REMARKS
GRAND FORKS    CLOUDY    14   7  73 N10       30.28R WCI   1
GRAND FORKS AF CLOUDY    12   7  79 N8        30.28R WCI   1
DEVILS LAKE    FLURRIES   6   3  87 NW5       30.27R WCI  -3
$$

NDZ022-023-025-028>030-036>039-047>053-120200-
...SOUTHEAST NORTH DAKOTA...

CITY           SKY/WX    TMP DP  RH WIND       PRES   REMARKS
JAMESTOWN      CLOUDY    14   9  80 N9        30.24R WCI   2
FARGO          CLOUDY    13   5  70 NW7       30.26R WCI   3
WAHPETON       CLOUDY    14   9  79 NW6       30.26R WCI   5
$$



USA.gov is the U.S. government's official web portal to all federal, state and local government web resources and services.